User: anonymous   Login
Location: *
(51.5000°N, 0.1100°W)
Time: 20:46:01
(UTC+00:00)
Language:

SJ 16-02 - Orbit

View from above orbital plane
View from above orbital plane
View from above satellite
View from above satellite

Ground track
Ground track

The orbit data is extracted from the following two-line orbital elements,

1 41634U 16043A   24206.53458486  .00003998  00000-0  42246-3 0  9999
2 41634  75.0024 146.7692 0009137 278.6150  81.4001 14.89468905437868
Epoch (UTC): 24 July 2024 12:49:48
Eccentricity: 0.0009137
inclination: 75.0024°
perigee height: 593 km
apogee height: 606 km
right ascension of ascending node: 146.7692°
argument of perigee: 278.6150°
revolutions per day: 14.89468905
mean anomaly at epoch: 81.4001°
orbit number at epoch: 43786

The dashed part of the orbit path shows where the satellite is in the earth's shadow,  

DLR